BAW442 LOWW-EGLL

Flight info

Callsign BAW442
Flight time N/A
Altitude 40000
Route BUWUT2A/11 BUWUT DCT DITIS DCT IPDUL DCT OKG DCT VELIS DCT SWALM DCT TIVUN DCT BREDA DCT ABNED L980 LOGAN
Aircraft A388/J-SADE2E3FGHIJ3J4J5M1RWXY/LB1D1

Departure

Time N/A
Airport Vienna International Airport (LOWW)

Arrival

Time 2026-05-03 21:22
Airport London Heathrow Airport (EGLL)
Time Latitude Longitude Altitude Speed Heading
2026-05-03 20:15 50.48715 10.38550 39973 ft 485 kts 285°
2026-05-03 20:15 50.50743 10.28457 39975 ft 484 kts 285°
2026-05-03 20:16 50.52760 10.18355 39980 ft 483 kts 284°
2026-05-03 20:16 50.54749 10.08333 39978 ft 483 kts 284°
2026-05-03 20:17 50.56736 9.98266 39974 ft 483 kts 284°
2026-05-03 20:17 50.58725 9.88136 39970 ft 483 kts 284°
2026-05-03 20:18 50.60701 9.78019 39978 ft 483 kts 284°
2026-05-03 20:18 50.62656 9.67959 39972 ft 483 kts 284°
2026-05-03 20:19 50.64614 9.57830 39974 ft 483 kts 284°
2026-05-03 20:19 50.66564 9.47689 39969 ft 483 kts 284°
2026-05-03 20:20 50.68501 9.37557 39975 ft 483 kts 284°
2026-05-03 20:20 50.70436 9.27385 39957 ft 484 kts 284°
2026-05-03 20:21 50.72338 9.17290 39964 ft 483 kts 283°
2026-05-03 20:21 50.74117 9.07069 39974 ft 483 kts 282°
2026-05-03 20:22 50.75876 8.96849 39972 ft 482 kts 282°
2026-05-03 20:22 50.77643 8.86615 39963 ft 483 kts 282°
2026-05-03 20:23 50.79402 8.76389 39958 ft 482 kts 282°
2026-05-03 20:23 50.81157 8.66136 39960 ft 483 kts 282°
2026-05-03 20:24 50.82898 8.55903 39973 ft 483 kts 282°
2026-05-03 20:24 50.84634 8.45635 39977 ft 483 kts 282°
2026-05-03 20:25 50.86465 8.34736 39983 ft 484 kts 282°
2026-05-03 20:25 50.87310 8.29692 39977 ft 470 kts 282°
2026-05-03 20:25 50.88143 8.24707 39974 ft 466 kts 282°
2026-05-03 20:26 50.89780 8.14836 39985 ft 467 kts 282°
2026-05-03 20:26 50.91426 8.04859 39987 ft 469 kts 282°
2026-05-03 20:27 50.93204 7.94895 39988 ft 472 kts 287°
2026-05-03 20:27 50.95369 7.85074 39985 ft 473 kts 286°
2026-05-03 20:28 50.97525 7.75182 39983 ft 475 kts 286°
2026-05-03 20:28 50.99674 7.65258 39983 ft 476 kts 286°
2026-05-03 20:29 51.01823 7.55279 39991 ft 478 kts 286°
2026-05-03 20:29 51.03972 7.45252 40046 ft 478 kts 285°
2026-05-03 20:30 51.06075 7.35400 39982 ft 467 kts 285°
2026-05-03 20:30 51.08159 7.25570 39986 ft 470 kts 285°
2026-05-03 20:31 51.10226 7.15781 39980 ft 470 kts 285°
2026-05-03 20:31 51.12300 7.05909 39978 ft 470 kts 285°
2026-05-03 20:32 51.14366 6.96031 39965 ft 470 kts 285°
2026-05-03 20:32 51.16422 6.86154 39961 ft 469 kts 285°
2026-05-03 20:33 51.18464 6.76290 39957 ft 468 kts 285°
2026-05-03 20:33 51.20496 6.66428 39968 ft 468 kts 285°
2026-05-03 20:34 51.22509 6.56609 39944 ft 468 kts 285°
2026-05-03 20:34 51.24534 6.46685 39943 ft 468 kts 285°
2026-05-03 20:35 51.26527 6.36863 39948 ft 468 kts 285°
2026-05-03 20:35 51.28526 6.26966 39945 ft 468 kts 285°
2026-05-03 20:36 51.30519 6.17045 39929 ft 470 kts 284°
2026-05-03 20:36 51.32511 6.07083 39935 ft 471 kts 284°
2026-05-03 20:37 51.34497 5.97097 39934 ft 472 kts 284°
2026-05-03 20:37 51.36481 5.87071 39941 ft 473 kts 284°
2026-05-03 20:38 51.38459 5.77028 39944 ft 473 kts 284°
2026-05-03 20:38 51.40431 5.66957 39938 ft 474 kts 284°
2026-05-03 20:39 51.42398 5.56860 39943 ft 475 kts 284°
2026-05-03 20:39 51.44357 5.46752 39946 ft 475 kts 284°
2026-05-03 20:40 51.45978 5.38344 39944 ft 475 kts 284°
2026-05-03 20:40 51.47926 5.28191 39962 ft 481 kts 284°
2026-05-03 20:40 51.49239 5.21304 39940 ft 493 kts 284°
2026-05-03 20:41 51.49920 5.17726 39939 ft 496 kts 284°
2026-05-03 20:41 51.51918 5.07217 39938 ft 492 kts 284°
2026-05-03 20:42 51.53908 4.96677 39938 ft 493 kts 284°
2026-05-03 20:42 51.55889 4.86143 39937 ft 493 kts 283°
2026-05-03 20:43 51.57742 4.75533 39943 ft 494 kts 283°
2026-05-03 20:43 51.59674 4.64925 39928 ft 494 kts 283°
2026-05-03 20:44 51.61576 4.54299 39928 ft 494 kts 283°
2026-05-03 20:44 51.63442 4.43737 39931 ft 494 kts 283°
2026-05-03 20:45 51.65308 4.33101 39936 ft 494 kts 283°
2026-05-03 20:45 51.67167 4.22438 39935 ft 494 kts 282°
2026-05-03 20:46 51.69013 4.11786 39923 ft 494 kts 282°
2026-05-03 20:46 51.70854 4.01102 39911 ft 494 kts 282°
2026-05-03 20:47 51.72683 3.90420 39911 ft 494 kts 282°
2026-05-03 20:47 51.74506 3.79711 39908 ft 495 kts 282°
2026-05-03 20:48 51.76308 3.69060 39909 ft 494 kts 282°
2026-05-03 20:48 51.78108 3.58351 39913 ft 494 kts 282°
2026-05-03 20:49 51.79900 3.47627 39914 ft 494 kts 282°
2026-05-03 20:49 51.81682 3.36890 39922 ft 494 kts 282°
2026-05-03 20:50 51.83393 3.26142 39911 ft 492 kts 278°
2026-05-03 20:50 51.84236 3.15206 39911 ft 489 kts 270°
2026-05-03 20:51 51.84063 3.04256 39913 ft 486 kts 262°
2026-05-03 20:51 51.83350 2.93451 39429 ft 480 kts 262°
2026-05-03 20:51 51.83010 2.88091 38801 ft 479 kts 262°
2026-05-03 20:52 51.82664 2.82742 38009 ft 478 kts 261°
2026-05-03 20:52 51.82310 2.77400 37181 ft 476 kts 261°
2026-05-03 20:52 51.81954 2.72091 36335 ft 475 kts 261°
2026-05-03 20:52 51.81595 2.66802 35465 ft 474 kts 261°
2026-05-03 20:53 51.81233 2.61513 34631 ft 472 kts 261°
2026-05-03 20:53 51.80870 2.56253 33843 ft 469 kts 260°
2026-05-03 20:53 51.80510 2.51045 33096 ft 463 kts 260°
2026-05-03 20:53 51.80152 2.45912 32391 ft 457 kts 260°
2026-05-03 20:54 51.79796 2.40838 31602 ft 452 kts 260°
2026-05-03 20:54 51.79076 2.30714 29937 ft 449 kts 259°
2026-05-03 20:54 51.78720 2.25739 29143 ft 443 kts 259°
2026-05-03 20:55 51.78367 2.20817 28341 ft 439 kts 259°
2026-05-03 20:55 51.78059 2.15930 27560 ft 435 kts 261°
2026-05-03 20:55 51.77788 2.11152 26819 ft 431 kts 261°
2026-05-03 20:55 51.77524 2.06357 26077 ft 427 kts 262°
2026-05-03 20:56 51.77340 2.01576 25359 ft 423 kts 263°
2026-05-03 20:56 51.77167 1.96875 25010 ft 418 kts 263°
2026-05-03 20:56 51.76992 1.92167 24926 ft 422 kts 263°
2026-05-03 20:56 51.76815 1.87417 24910 ft 424 kts 263°
2026-05-03 20:57 51.76638 1.82673 24909 ft 424 kts 263°
2026-05-03 20:57 51.76460 1.77929 24886 ft 422 kts 263°
2026-05-03 20:57 51.76282 1.73213 24488 ft 419 kts 264°
2026-05-03 20:57 51.76105 1.68539 23863 ft 417 kts 264°
2026-05-03 20:58 51.75928 1.63891 23159 ft 413 kts 264°
2026-05-03 20:58 51.75753 1.59280 22362 ft 409 kts 264°
2026-05-03 20:58 51.75579 1.54732 21430 ft 405 kts 264°
2026-05-03 20:58 51.75406 1.50224 20518 ft 400 kts 264°
2026-05-03 20:59 51.75234 1.45774 19610 ft 395 kts 264°
2026-05-03 20:59 51.75063 1.41362 18765 ft 391 kts 264°
2026-05-03 20:59 51.74893 1.36998 18038 ft 388 kts 264°
2026-05-03 20:59 51.74724 1.32661 17300 ft 384 kts 264°
2026-05-03 21:00 51.74553 1.28385 16591 ft 379 kts 263°
2026-05-03 21:00 51.74295 1.25622 16187 ft 374 kts 257°
2026-05-03 21:00 51.73615 1.20291 15923 ft 355 kts 256°
2026-05-03 21:00 51.73117 1.16449 15905 ft 349 kts 256°
2026-05-03 21:01 51.72622 1.12612 15905 ft 350 kts 257°
2026-05-03 21:01 51.72130 1.08749 15903 ft 351 kts 257°
2026-05-03 21:01 51.71641 1.04891 15903 ft 351 kts 257°
2026-05-03 21:01 51.71153 1.01033 15903 ft 351 kts 257°
2026-05-03 21:02 51.70667 0.97204 15903 ft 351 kts 257°
2026-05-03 21:02 51.70249 0.93323 15907 ft 353 kts 262°
2026-05-03 21:02 51.69988 0.89385 15873 ft 352 kts 262°
2026-05-03 21:02 51.69724 0.85481 15537 ft 349 kts 262°
2026-05-03 21:03 51.69455 0.81603 15043 ft 347 kts 262°
2026-05-03 21:03 51.69184 0.77741 14462 ft 345 kts 262°
2026-05-03 21:03 51.68918 0.73967 13911 ft 342 kts 262°
2026-05-03 21:03 51.68648 0.70167 13325 ft 340 kts 262°
2026-05-03 21:04 51.68378 0.66398 12716 ft 337 kts 262°
2026-05-03 21:04 51.68110 0.62655 12100 ft 335 kts 262°
2026-05-03 21:04 51.67843 0.58943 11523 ft 333 kts 262°
2026-05-03 21:04 51.67580 0.55297 11296 ft 320 kts 262°
2026-05-03 21:05 51.67329 0.51821 11069 ft 304 kts 262°
2026-05-03 21:05 51.67091 0.48542 10833 ft 287 kts 262°
2026-05-03 21:05 51.66859 0.45371 10312 ft 283 kts 262°
2026-05-03 21:05 51.66627 0.42230 9723 ft 282 kts 262°
2026-05-03 21:06 51.66395 0.39106 9148 ft 280 kts 262°
2026-05-03 21:06 51.66165 0.35993 8980 ft 280 kts 262°
2026-05-03 21:06 51.65933 0.32876 8904 ft 280 kts 262°
2026-05-03 21:06 51.65702 0.29775 8890 ft 278 kts 262°
2026-05-03 21:07 51.65471 0.26688 8658 ft 279 kts 262°
2026-05-03 21:07 51.65243 0.23643 8544 ft 268 kts 262°
2026-05-03 21:07 51.65026 0.20742 8368 ft 253 kts 262°
2026-05-03 21:07 51.64819 0.17995 8080 ft 244 kts 262°
2026-05-03 21:08 51.64623 0.15289 7610 ft 243 kts 265°
2026-05-03 21:08 51.64662 0.12578 7132 ft 243 kts 272°
2026-05-03 21:08 51.64764 0.09854 6705 ft 242 kts 271°
2026-05-03 21:08 51.64849 0.07176 6223 ft 238 kts 271°
2026-05-03 21:09 51.64927 0.04489 5657 ft 240 kts 271°
2026-05-03 21:09 51.65004 0.01821 5220 ft 237 kts 271°
2026-05-03 21:09 51.65079 -0.00818 4788 ft 236 kts 271°
2026-05-03 21:09 51.65154 -0.03445 4312 ft 235 kts 272°
2026-05-03 21:10 51.65228 -0.06069 3866 ft 233 kts 272°
2026-05-03 21:10 51.65301 -0.08664 3424 ft 232 kts 272°
2026-05-03 21:10 51.65374 -0.11258 3044 ft 231 kts 273°
2026-05-03 21:10 51.65445 -0.13818 2935 ft 228 kts 271°
2026-05-03 21:11 51.65119 -0.16308 2944 ft 231 kts 241°
2026-05-03 21:11 51.64029 -0.18187 2939 ft 233 kts 210°
2026-05-03 21:11 51.62509 -0.18882 2940 ft 232 kts 179°
2026-05-03 21:11 51.60900 -0.18635 2931 ft 229 kts 171°
2026-05-03 21:12 51.59382 -0.18232 2933 ft 215 kts 171°
2026-05-03 21:12 51.57926 -0.17890 2944 ft 208 kts 172°
2026-05-03 21:12 51.56497 -0.17630 2915 ft 209 kts 174°
2026-05-03 21:12 51.55046 -0.17421 2907 ft 209 kts 175°
2026-05-03 21:13 51.53599 -0.17242 2895 ft 208 kts 176°
2026-05-03 21:13 51.52173 -0.17077 2643 ft 205 kts 176°
2026-05-03 21:13 51.50742 -0.16925 2502 ft 206 kts 179°
2026-05-03 21:13 51.49340 -0.17363 2501 ft 207 kts 197°
2026-05-03 21:14 51.47918 -0.17515 2496 ft 208 kts 166°
2026-05-03 21:14 51.46576 -0.16647 2542 ft 208 kts 154°
2026-05-03 21:14 51.45512 -0.15114 2776 ft 209 kts 120°
2026-05-03 21:14 51.45177 -0.12879 2975 ft 209 kts 86°
2026-05-03 21:15 51.45373 -0.10561 2996 ft 210 kts 82°
2026-05-03 21:15 51.45577 -0.08247 3004 ft 210 kts 82°
2026-05-03 21:15 51.45774 -0.05932 2991 ft 209 kts 77°
2026-05-03 21:15 51.46468 -0.03955 2985 ft 200 kts 42°
2026-05-03 21:16 51.47678 -0.03080 2983 ft 190 kts
2026-05-03 21:16 51.48936 -0.03572 3009 ft 188 kts 330°
2026-05-03 21:16 51.49805 -0.05090 3005 ft 188 kts 293°
2026-05-03 21:16 51.49915 -0.07148 3007 ft 188 kts 261°
2026-05-03 21:17 51.49612 -0.09193 2992 ft 188 kts 255°
2026-05-03 21:17 51.49388 -0.10523 2968 ft 184 kts 255°
2026-05-03 21:17 51.49002 -0.13040 2761 ft 165 kts 257°
2026-05-03 21:17 51.48769 -0.14797 2516 ft 163 kts 259°
2026-05-03 21:18 51.48553 -0.16600 2495 ft 165 kts 259°
2026-05-03 21:18 51.48344 -0.18431 2502 ft 165 kts 260°
2026-05-03 21:18 51.48137 -0.20218 2498 ft 165 kts 260°
2026-05-03 21:18 51.47985 -0.22049 2501 ft 166 kts 265°
2026-05-03 21:19 51.47926 -0.23890 2486 ft 165 kts 268°
2026-05-03 21:19 51.47903 -0.25731 2254 ft 165 kts 269°
2026-05-03 21:19 51.47890 -0.27558 2037 ft 163 kts 269°
2026-05-03 21:19 51.47877 -0.29369 1820 ft 161 kts 269°
2026-05-03 21:20 51.47866 -0.31164 1606 ft 160 kts 269°
2026-05-03 21:20 51.47854 -0.32936 1383 ft 155 kts 269°
2026-05-03 21:20 51.47843 -0.34636 1174 ft 151 kts 269°
2026-05-03 21:20 51.47832 -0.36312 968 ft 150 kts 269°
2026-05-03 21:21 51.47821 -0.37979 774 ft 148 kts 269°
2026-05-03 21:21 51.47809 -0.39666 578 ft 155 kts 269°
2026-05-03 21:21 51.47777 -0.41404 371 ft 154 kts 269°
2026-05-03 21:21 51.47765 -0.43106 171 ft 154 kts 270°
2026-05-03 21:22 51.47767 -0.44709 103 ft 127 kts 269°
2026-05-03 21:22 51.47756 -0.45933 95 ft 93 kts 270°
2026-05-03 21:22 51.47746 -0.46501 100 ft 32 kts 259°
2026-05-03 21:22 51.47673 -0.46804 103 ft 23 kts 235°
2026-05-03 21:23 51.47653 -0.46843 102 ft 0 kts 213°
2026-05-03 21:23 51.47639 -0.46857 104 ft 8 kts 212°
2026-05-03 21:24 51.47587 -0.46949 101 ft 13 kts 253°
2026-05-03 21:24 51.47579 -0.47112 99 ft 17 kts 270°
2026-05-03 21:24 51.47580 -0.47314 97 ft 19 kts 270°
2026-05-03 21:24 51.47580 -0.47535 96 ft 20 kts 270°
2026-05-03 21:25 51.47581 -0.47765 97 ft 21 kts 270°
2026-05-03 21:25 51.47581 -0.47994 99 ft 20 kts 270°
2026-05-03 21:25 51.47581 -0.48218 100 ft 20 kts 268°
2026-05-03 21:25 51.47532 -0.48355 98 ft 15 kts 188°
2026-05-03 21:26 51.47410 -0.48360 94 ft 19 kts 178°
2026-05-03 21:26 51.47298 -0.48312 97 ft 15 kts 123°
2026-05-03 21:26 51.47307 -0.48225 96 ft 0 kts 74°
2026-05-03 21:27 51.47306 -0.48236 95 ft 2 kts 81°
2026-05-03 21:27 51.47307 -0.48256 95 ft 3 kts 106°
2026-05-03 21:27 51.47318 -0.48280 95 ft 3 kts 116°
2026-05-03 21:27 51.47318 -0.48286 95 ft 2 kts 95°
2026-05-03 21:28 51.47312 -0.48238 96 ft 1 kts 94°
2026-05-03 21:28 51.47312 -0.48235 96 ft 0 kts 86°